Time,TemperatureF,DewpointF,PressureIn,WindDirection,WindDirectionDegrees,WindSpeedMPH,WindSpeedGustMPH,Humidity,HourlyPrecipIn,Conditions,Clouds,dailyrainin,SoftwareType,DateUTC
2013-09-29 00:09:00,59.4,54.0,30.18,SW,221,3.0,13.0,83,0.00,,,0.00,weatherlink.com 1.10,2013-09-29 04:09:00,
2013-09-29 00:24:00,59.1,54.0,30.18,SW,229,6.0,11.0,84,0.00,,,0.00,weatherlink.com 1.10,2013-09-29 04:24:00,
2013-09-29 00:40:00,59.0,54.0,30.18,SSW,194,5.0,9.0,84,0.00,,,0.00,weatherlink.com 1.10,2013-09-29 04:40:00,
2013-09-29 00:55:00,58.9,53.0,30.18,South,180,4.0,11.0,82,0.00,,,0.00,weatherlink.com 1.10,2013-09-29 04:55:00,
2013-09-29 01:10:00,58.8,53.0,30.18,SSE,155,6.0,10.0,82,0.00,,,0.00,weatherlink.com 1.10,2013-09-29 05:10:00,
2013-09-29 01:25:00,58.7,53.0,30.18,SSE,153,6.0,9.0,81,0.00,,,0.00,weatherlink.com 1.10,2013-09-29 05:25:00,
2013-09-29 01:40:00,58.4,53.0,30.19,SSE,152,2.0,6.0,82,0.00,,,0.00,weatherlink.com 1.10,2013-09-29 05:40:00,
2013-09-29 01:55:00,57.9,52.0,30.19,SSE,165,4.0,8.0,82,0.00,,,0.00,weatherlink.com 1.10,2013-09-29 05:55:00,
2013-09-29 02:10:00,57.3,53.0,30.19,South,187,4.0,6.0,84,0.00,,,0.00,weatherlink.com 1.10,2013-09-29 06:10:00,
2013-09-29 02:25:00,56.8,52.0,30.18,SSE,159,2.0,7.0,85,0.00,,,0.00,weatherlink.com 1.10,2013-09-29 06:25:00,
2013-09-29 02:40:00,56.3,53.0,30.18,SSE,155,4.0,6.0,87,0.00,,,0.00,weatherlink.com 1.10,2013-09-29 06:40:00,
2013-09-29 02:55:00,55.9,52.0,30.18,SSE,167,3.0,7.0,88,0.00,,,0.00,weatherlink.com 1.10,2013-09-29 06:55:00,
2013-09-29 03:10:00,55.7,53.0,30.17,South,174,5.0,7.0,89,0.00,,,0.00,weatherlink.com 1.10,2013-09-29 07:10:00,
2013-09-29 03:25:00,55.2,52.0,30.17,South,183,3.0,6.0,90,0.00,,,0.00,weatherlink.com 1.10,2013-09-29 07:25:00,
2013-09-29 03:40:00,54.7,52.0,30.17,SSW,204,1.0,5.0,90,0.00,,,0.00,weatherlink.com 1.10,2013-09-29 07:40:00,
2013-09-29 03:55:00,54.1,52.0,30.17,SSE,155,3.0,4.0,92,0.00,,,0.00,weatherlink.com 1.10,2013-09-29 07:55:00,
2013-09-29 04:10:00,53.7,52.0,30.16,SSW,204,1.0,4.0,93,0.00,,,0.00,weatherlink.com 1.10,2013-09-29 08:10:00,
2013-09-29 04:25:00,53.3,51.0,30.16,SSE,162,0.0,3.0,93,0.00,,,0.00,weatherlink.com 1.10,2013-09-29 08:25:00,
2013-09-29 04:40:00,53.1,52.0,30.16,SSE,155,1.0,2.0,94,0.00,,,0.00,weatherlink.com 1.10,2013-09-29 08:40:00,
2013-09-29 04:55:00,53.0,51.0,30.16,ESE,113,0.0,1.0,94,0.00,,,0.00,weatherlink.com 1.10,2013-09-29 08:55:00,
2013-09-29 05:10:00,52.8,51.0,30.16,East,81,0.0,1.0,94,0.00,,,0.00,weatherlink.com 1.10,2013-09-29 09:10:00,
2013-09-29 05:25:00,52.6,51.0,30.16,East,81,0.0,0.0,94,0.00,,,0.00,weatherlink.com 1.10,2013-09-29 09:25:00,
2013-09-29 05:40:00,52.1,51.0,30.16,WSW,252,0.0,1.0,95,0.00,,,0.00,weatherlink.com 1.10,2013-09-29 09:40:00,
2013-09-29 05:55:00,51.5,50.0,30.16,WSW,252,0.0,0.0,95,0.00,,,0.00,weatherlink.com 1.10,2013-09-29 09:55:00,
2013-09-29 06:10:00,51.0,50.0,30.16,WSW,252,0.0,1.0,95,0.00,,,0.00,weatherlink.com 1.10,2013-09-29 10:10:00,
2013-09-29 06:25:00,50.8,50.0,30.17,WSW,251,0.0,1.0,96,0.00,,,0.00,weatherlink.com 1.10,2013-09-29 10:25:00,
2013-09-29 06:40:00,50.6,50.0,30.17,WSW,253,0.0,0.0,96,0.00,,,0.00,weatherlink.com 1.10,2013-09-29 10:40:00,
2013-09-29 06:55:00,50.8,50.0,30.18,NNE,32,0.0,0.0,96,0.00,,,0.00,weatherlink.com 1.10,2013-09-29 10:55:00,
2013-09-29 07:10:00,51.0,50.0,30.18,NNE,20,0.0,0.0,97,0.00,,,0.00,weatherlink.com 1.10,2013-09-29 11:10:00,
2013-09-29 07:25:00,51.0,50.0,30.18,South,183,0.0,2.0,96,0.00,,,0.00,weatherlink.com 1.10,2013-09-29 11:25:00,
2013-09-29 07:40:00,51.2,50.0,30.18,SW,234,0.0,1.0,96,0.00,,,0.00,weatherlink.com 1.10,2013-09-29 11:40:00,
2013-09-29 07:55:00,51.7,51.0,30.18,South,174,0.0,1.0,96,0.00,,,0.00,weatherlink.com 1.10,2013-09-29 11:55:00,
2013-09-29 08:10:00,52.2,51.0,30.18,SSE,165,0.0,1.0,96,0.00,,,0.00,weatherlink.com 1.10,2013-09-29 12:10:00,
2013-09-29 08:25:00,53.1,52.0,30.18,South,190,0.0,1.0,95,0.00,,,0.00,weatherlink.com 1.10,2013-09-29 12:25:00,
2013-09-29 08:40:00,53.9,52.0,30.18,SW,231,0.0,1.0,94,0.00,,,0.00,weatherlink.com 1.10,2013-09-29 12:40:00,
2013-09-29 08:55:00,54.5,53.0,30.18,East,89,0.0,1.0,93,0.00,,,0.00,weatherlink.com 1.10,2013-09-29 12:55:00,
2013-09-29 09:10:00,55.4,53.0,30.19,East,98,0.0,0.0,92,0.00,,,0.00,weatherlink.com 1.10,2013-09-29 13:10:00,
2013-09-29 09:25:00,56.6,54.0,30.18,SSW,204,0.0,1.0,90,0.00,,,0.00,weatherlink.com 1.10,2013-09-29 13:25:00,
2013-09-29 09:40:00,57.5,53.0,30.18,SSW,212,2.0,6.0,86,0.00,,,0.00,weatherlink.com 1.10,2013-09-29 13:40:00,
2013-09-29 09:55:00,58.3,54.0,30.17,SSW,207,0.0,4.0,84,0.00,,,0.00,weatherlink.com 1.10,2013-09-29 13:55:00,
2013-09-29 10:10:00,58.8,53.0,30.17,SSW,197,2.0,4.0,82,0.00,,,0.00,weatherlink.com 1.10,2013-09-29 14:10:00,
2013-09-29 10:25:00,59.8,54.0,30.17,SW,236,5.0,5.0,80,0.00,,,0.00,weatherlink.com 1.10,2013-09-29 14:25:00,
2013-09-29 10:40:00,60.5,54.0,30.17,SW,218,4.0,4.0,78,0.00,,,0.00,weatherlink.com 1.10,2013-09-29 14:40:00,
2013-09-29 10:56:00,61.4,54.0,30.16,SSE,158,1.0,4.0,76,0.00,,,0.00,weatherlink.com 1.10,2013-09-29 14:56:00,
2013-09-29 11:11:00,61.8,54.0,30.16,WSW,257,0.0,2.0,75,0.00,,,0.00,weatherlink.com 1.10,2013-09-29 15:11:00,
2013-09-29 11:26:00,64.1,55.0,30.15,WSW,248,3.0,5.0,71,0.00,,,0.00,weatherlink.com 1.10,2013-09-29 15:26:00,
2013-09-29 11:41:00,64.2,54.0,30.15,WSW,255,0.0,3.0,70,0.00,,,0.00,weatherlink.com 1.10,2013-09-29 15:41:00,
2013-09-29 11:56:00,63.5,54.0,30.15,SW,234,0.0,3.0,72,0.00,,,0.00,weatherlink.com 1.10,2013-09-29 15:56:00,
2013-09-29 12:11:00,65.4,55.0,30.14,ENE,67,2.0,4.0,69,0.00,,,0.00,weatherlink.com 1.10,2013-09-29 16:11:00,
2013-09-29 12:26:00,66.4,55.0,30.14,SSE,150,1.0,4.0,67,0.00,,,0.00,weatherlink.com 1.10,2013-09-29 16:26:00,
2013-09-29 12:41:00,68.2,56.0,30.14,SW,226,2.0,4.0,65,0.00,,,0.00,weatherlink.com 1.10,2013-09-29 16:41:00,
2013-09-29 12:56:00,68.2,56.0,30.13,ESE,113,0.0,4.0,65,0.00,,,0.00,weatherlink.com 1.10,2013-09-29 16:56:00,
2013-09-29 13:11:00,71.1,57.0,30.12,WNW,289,1.0,3.0,61,0.00,,,0.00,weatherlink.com 1.10,2013-09-29 17:11:00,
2013-09-29 13:26:00,69.2,55.0,30.11,NE,37,2.0,9.0,62,0.00,,,0.00,weatherlink.com 1.10,2013-09-29 17:26:00,
2013-09-29 13:41:00,69.4,56.0,30.10,NE,54,0.0,5.0,62,0.00,,,0.00,weatherlink.com 1.10,2013-09-29 17:41:00,
2013-09-29 13:56:00,70.8,56.0,30.09,NW,317,1.0,6.0,59,0.00,,,0.00,weatherlink.com 1.10,2013-09-29 17:56:00,
2013-09-29 14:11:00,70.4,55.0,30.08,East,81,0.0,8.0,59,0.00,,,0.00,weatherlink.com 1.10,2013-09-29 18:11:00,
2013-09-29 14:26:00,71.3,56.0,30.08,WNW,295,2.0,6.0,59,0.00,,,0.00,weatherlink.com 1.10,2013-09-29 18:26:00,
2013-09-29 14:41:00,70.3,56.0,30.06,NW,307,0.0,8.0,61,0.00,,,0.00,weatherlink.com 1.10,2013-09-29 18:41:00,
2013-09-29 14:56:00,71.5,56.0,30.05,NE,41,1.0,5.0,59,0.00,,,0.00,weatherlink.com 1.10,2013-09-29 18:56:00,
2013-09-29 15:11:00,72.7,56.0,30.05,West,271,1.0,5.0,56,0.00,,,0.00,weatherlink.com 1.10,2013-09-29 19:11:00,
2013-09-29 15:26:00,71.4,56.0,30.04,WSW,248,0.0,2.0,58,0.00,,,0.00,weatherlink.com 1.10,2013-09-29 19:26:00,
2013-09-29 15:41:00,72.9,56.0,30.04,WNW,294,1.0,3.0,56,0.00,,,0.00,weatherlink.com 1.10,2013-09-29 19:41:00,
2013-09-29 15:56:00,72.4,56.0,30.04,NW,322,1.0,5.0,57,0.00,,,0.00,weatherlink.com 1.10,2013-09-29 19:56:00,
2013-09-29 16:11:00,72.5,57.0,30.04,North,354,6.0,6.0,59,0.00,,,0.00,weatherlink.com 1.10,2013-09-29 20:11:00,
2013-09-29 16:26:00,70.6,58.0,30.03,NNW,347,3.0,6.0,64,0.00,,,0.00,weatherlink.com 1.10,2013-09-29 20:26:00,
2013-09-29 16:41:00,70.2,58.0,30.03,North,356,1.0,4.0,65,0.00,,,0.00,weatherlink.com 1.10,2013-09-29 20:41:00,
2013-09-29 16:56:00,71.9,59.0,30.03,NW,325,2.0,3.0,65,0.00,,,0.00,weatherlink.com 1.10,2013-09-29 20:56:00,
2013-09-29 17:11:00,70.0,58.0,30.04,North,359,6.0,12.0,65,0.00,,,0.00,weatherlink.com 1.10,2013-09-29 21:11:00,
2013-09-29 17:27:00,68.9,58.0,30.04,NW,326,4.0,9.0,69,0.00,,,0.00,weatherlink.com 1.10,2013-09-29 21:27:00,
2013-09-29 17:42:00,68.9,59.0,30.04,North,360,1.0,6.0,71,0.00,,,0.00,weatherlink.com 1.10,2013-09-29 21:42:00,
2013-09-29 17:57:00,67.8,60.0,30.04,NNW,340,1.0,2.0,75,0.00,,,0.00,weatherlink.com 1.10,2013-09-29 21:57:00,
2013-09-29 18:12:00,67.2,59.0,30.04,NNE,19,0.0,3.0,76,0.00,,,0.00,weatherlink.com 1.10,2013-09-29 22:12:00,
2013-09-29 18:27:00,67.1,60.0,30.05,NNW,338,0.0,3.0,78,0.00,,,0.00,weatherlink.com 1.10,2013-09-29 22:27:00,
2013-09-29 18:44:00,65.9,60.0,30.05,NNW,335,1.0,4.0,80,0.00,,,0.00,weatherlink.com 1.10,2013-09-29 22:44:00,
2013-09-29 18:57:00,65.8,59.0,30.05,NE,39,0.0,2.0,78,0.00,,,0.00,weatherlink.com 1.10,2013-09-29 22:57:00,
2013-09-29 19:12:00,65.0,59.0,30.05,SW,225,1.0,1.0,82,0.00,,,0.00,weatherlink.com 1.10,2013-09-29 23:12:00,
2013-09-29 19:27:00,64.3,58.0,30.06,SSE,167,0.0,3.0,81,0.00,,,0.00,weatherlink.com 1.10,2013-09-29 23:27:00,
2013-09-29 19:42:00,64.2,59.0,30.06,WSW,239,0.0,1.0,82,0.00,,,0.00,weatherlink.com 1.10,2013-09-29 23:42:00,
2013-09-29 19:57:00,63.4,60.0,30.06,West,266,0.0,2.0,88,0.00,,,0.00,weatherlink.com 1.10,2013-09-29 23:57:00,
2013-09-29 20:12:00,63.4,59.0,30.06,SSW,205,0.0,3.0,84,0.00,,,0.00,weatherlink.com 1.10,2013-09-30 00:12:00,
2013-09-29 20:27:00,63.5,58.0,30.06,SSE,151,2.0,4.0,82,0.00,,,0.00,weatherlink.com 1.10,2013-09-30 00:27:00,
2013-09-29 20:42:00,63.6,58.0,30.06,South,169,4.0,9.0,81,0.00,,,0.00,weatherlink.com 1.10,2013-09-30 00:42:00,
2013-09-29 20:57:00,63.2,57.0,30.06,SSE,160,6.0,10.0,81,0.00,,,0.00,weatherlink.com 1.10,2013-09-30 00:57:00,
2013-09-29 21:12:00,62.8,57.0,30.06,SSE,164,6.0,10.0,82,0.00,,,0.00,weatherlink.com 1.10,2013-09-30 01:12:00,
2013-09-29 21:27:00,62.4,57.0,30.05,SSE,163,7.0,10.0,82,0.00,,,0.00,weatherlink.com 1.10,2013-09-30 01:27:00,
2013-09-29 21:42:00,62.1,57.0,30.05,SSW,198,4.0,14.0,82,0.00,,,0.00,weatherlink.com 1.10,2013-09-30 01:42:00,
2013-09-29 21:57:00,61.9,56.0,30.05,SSE,150,5.0,8.0,82,0.00,,,0.00,weatherlink.com 1.10,2013-09-30 01:57:00,
2013-09-29 22:12:00,61.7,57.0,30.05,SSW,212,2.0,8.0,83,0.00,,,0.00,weatherlink.com 1.10,2013-09-30 02:12:00,
2013-09-29 22:27:00,61.7,57.0,30.06,South,169,6.0,9.0,83,0.00,,,0.00,weatherlink.com 1.10,2013-09-30 02:27:00,
2013-09-29 22:42:00,61.8,57.0,30.06,SSW,208,1.0,8.0,83,0.00,,,0.00,weatherlink.com 1.10,2013-09-30 02:42:00,
2013-09-29 22:57:00,61.5,57.0,30.06,SSW,195,4.0,5.0,84,0.00,,,0.00,weatherlink.com 1.10,2013-09-30 02:57:00,
2013-09-29 23:12:00,61.3,57.0,30.07,SSW,210,0.0,4.0,86,0.00,,,0.00,weatherlink.com 1.10,2013-09-30 03:12:00,
2013-09-29 23:27:00,61.0,57.0,30.07,SW,222,0.0,2.0,86,0.00,,,0.00,weatherlink.com 1.10,2013-09-30 03:27:00,
2013-09-29 23:42:00,60.8,57.0,30.08,SW,228,0.0,1.0,88,0.00,,,0.00,weatherlink.com 1.10,2013-09-30 03:42:00,
2013-09-29 23:57:00,60.8,57.0,30.08,South,191,0.0,1.0,87,0.00,,,0.00,weatherlink.com 1.10,2013-09-30 03:57:00,